Location: Kelshall
(52.0000°N, 0.0500°W)
Time: 22:28:27
(UTC+00:00)

Resurs 01 Rocket - Pass Details

Date: 18 September 2020
Orbit: 633 x 645 km, 98.0° (Epoch: 20 October)

Event Time Altitude Azimuth Distance (km) Brightness Sun altitude
Exits shadow 20:56:50 39° 221° (SW) 978 2.5 -24.9°
Maximum altitude 20:57:54 47° 261° (W) 862 2.4 -25.0°
Drops below altitude 10° 21:02:14 10° 335° (NNW) 2,054 5.1 -25.5°
Sets 21:04:32 0° 342° (NNW) 2,967 6.0 -25.8°
